DAMPETORP Weather Reports


Display with metric or nautical units.
time (UTC)temp
F
wind
direction
speed
MPH
gust
MPH
rain 1hr
in
rain 24hr
in
rain mn
in
humidity
%
barometer
mb
20260507174507 57 135 0.0 3.0 0.00 0.00 0.00 23 1015.4
20260507173014 58 108 1.0 5.0 0.00 0.00 0.00 21 1015.3
20260507171508 58 145 0.0 4.0 0.00 0.00 0.00 20 1015.1
20260507170003 59 146 3.0 5.0 0.00 0.00 0.00 20 1015.0
20260507164605 60 69 1.0 4.0 0.00 0.00 0.00 19 1014.9
20260507163059 59 146 0.0 7.0 0.00 0.00 0.00 20 1014.8
20260507161558 59 53 2.0 7.0 0.00 0.00 0.00 21 1014.8
20260507160057 59 99 0.0 7.0 0.00 0.00 0.00 23 1014.7
20260507154555 60 125 3.0 9.0 0.00 0.00 0.00 23 1014.6
20260507153052 60 128 1.0 4.0 0.00 0.00 0.00 23 1014.6
20260507151550 59 153 2.0 6.0 0.00 0.00 0.00 25 1014.5
20260507150049 59 106 2.0 8.0 0.00 0.00 0.00 26 1014.5
20260507144548 59 146 0.0 11.0 0.00 0.00 0.00 27 1014.3
20260507143052 59 134 0.0 8.0 0.00 0.00 0.00 30 1014.1
20260507141552 60 150 2.0 11.0 0.00 0.00 0.00 31 1014.1
20260507140044 60 352 6.0 14.0 0.00 0.00 0.00 31 1013.9
20260507134542 60 320 2.0 6.0 0.00 0.00 0.00 35 1013.9
20260507133059 61 318 3.0 9.0 0.00 0.00 0.00 33 1013.8
20260507131548 61 333 1.0 6.0 0.00 0.00 0.00 35 1013.7
20260507130051 58 130 0.0 2.0 0.00 0.00 0.00 33 1013.7
20260507124536 57 166 1.0 5.0 0.00 0.00 0.00 37 1013.7
20260507123036 57 144 2.0 6.0 0.00 0.00 0.00 37 1013.6
20260507121534 58 176 2.0 8.0 0.00 0.00 0.00 36 1013.5
20260507120042 60 126 0.0 8.0 0.00 0.00 0.00 34 1013.4
20260507114554 59 154 1.0 9.0 0.00 0.00 0.00 37 1013.4
20260507113030 59 323 5.0 11.0 0.00 0.00 0.00 38 1013.4
20260507111534 58 177 0.0 1.0 0.00 0.00 0.00 36 1013.5
20260507110027 58 177 1.0 5.0 0.00 0.00 0.00 38 1013.4
20260507104526 56 164 2.0 4.0 0.00 0.00 0.00 39 1013.3
20260507103023 58 233 3.0 9.0 0.00 0.00 0.00 38 1013.1
20260507101522 56 122 1.0 6.0 0.00 0.00 0.00 37 1013.1
20260507100019 57 151 0.0 8.0 0.00 0.00 0.00 37 1013.0
20260507094517 56 170 2.0 5.0 0.00 0.00 0.00 38 1012.9
20260507093017 56 106 0.0 8.0 0.00 0.00 0.00 39 1012.9
20260507091518 55 150 3.0 6.0 0.00 0.00 0.00 43 1013.0
20260507090021 55 157 1.0 5.0 0.00 0.00 0.00 43 1012.9
20260507084510 55 140 0.0 4.0 0.00 0.00 0.00 45 1013.0
20260507083006 54 158 0.0 3.0 0.00 0.00 0.00 49 1012.9
20260507081504 54 131 1.0 3.0 0.00 0.00 0.00 50 1012.8
20260507080003 53 33 0.0 3.0 0.00 0.00 0.00 51 1012.7
20260507074600 54 158 0.0 1.0 0.00 0.00 0.00 50 1012.7
20260507073106 52 143 0.0 3.0 0.00 0.00 0.00 54 1012.6
20260507071556 51 150 0.0 4.0 0.00 0.00 0.00 54 1012.6
20260507070055 53 112 0.0 2.0 0.00 0.00 0.00 53 1012.6
20260507064552 50 78 0.0 2.0 0.00 0.00 0.00 57 1012.5
20260507063056 50 87 0.0 1.0 0.00 0.00 0.00 56 1012.5
20260507061549 48 30 0.0 2.0 0.00 0.00 0.00 58 1012.4
20260507060050 47 126 0.0 3.0 0.00 0.00 0.00 60 1012.4
20260507054541 45 73 2.0 5.0 0.00 0.00 0.00 61 1012.2
20260507053039 44 334 3.0 5.0 0.00 0.00 0.00 62 1012.2
20260507051538 44 329 3.0 6.0 0.00 0.00 0.00 62 1012.1
20260507050035 42 94 0.0 0.0 0.00 0.00 0.00 68 1012.0
20260507044534 39 106 0.0 0.0 0.00 0.00 0.00 71 1012.0
20260507043033 38 106 0.0 0.0 0.00 0.00 0.00 74 1011.8
20260507041531 37 106 0.0 0.0 0.00 0.00 0.00 73 1011.8
20260507040030 37 106 0.0 0.0 0.00 0.00 0.00 73 1011.7
20260507034530 37 353 0.0 0.0 0.00 0.00 0.00 71 1011.7
20260507033030 37 353 0.0 0.0 0.00 0.00 0.00 71 1011.4
20260507031526 38 329 0.0 2.0 0.00 0.00 0.00 68 1011.3
20260507030026 37 329 0.0 2.0 0.00 0.00 0.00 72 1011.2
20260507024525 36 308 0.0 0.0 0.00 0.00 0.00 74 1011.4
20260507023023 35 307 0.0 1.0 0.00 0.00 0.00 74 1011.4
20260507021524 35 304 0.0 1.0 0.00 0.00 0.00 74 1011.4
20260507020028 35 304 0.0 0.0 0.00 0.00 0.00 70 1011.4
20260507014526 37 304 0.0 0.0 0.00 0.00 0.00 66 1011.3
20260507013023 38 304 0.0 0.0 0.00 0.00 0.00 64 1011.3
20260507011512 39 295 1.0 4.0 0.00 0.00 0.00 62 1011.1
20260507010005 40 317 0.0 2.0 0.00 0.00 0.00 60 1011.2
20260507004504 41 320 0.0 4.0 0.00 0.00 0.00 59 1011.1
20260507003005 41 304 1.0 4.0 0.00 0.00 0.00 59 1011.1
20260507001504 41 314 1.0 6.0 0.00 0.00 0.00 60 1011.1
20260506234556 42 348 0.0 2.0 0.00 0.00 0.00 58 1011.1
20260506233109 42 342 0.0 2.0 0.00 0.00 0.00 58 1011.1
20260506231559 42 342 0.0 2.0 0.00 0.00 0.00 57 1011.1
20260506230053 43 356 0.0 3.0 0.00 0.00 0.00 56 1011.0
20260506224552 43 336 0.0 4.0 0.00 0.00 0.00 55 1011.0
20260506223049 44 319 0.0 6.0 0.00 0.00 0.00 55 1011.0
20260506221549 44 356 1.0 6.0 0.00 0.00 0.00 54 1011.0
20260506220045 43 46 0.0 3.0 0.00 0.00 0.00 54 1010.9
20260506214544 43 332 1.0 5.0 0.00 0.00 0.00 55 1011.0
20260506213058 43 349 0.0 3.0 0.00 0.00 0.00 55 1010.8
20260506211546 43 307 0.0 3.0 0.00 0.00 0.00 54 1010.7
20260506210042 44 328 0.0 5.0 0.00 0.00 0.00 52 1010.7
20260506204541 44 306 1.0 7.0 0.00 0.00 0.00 51 1010.6
20260506203041 44 309 1.0 3.0 0.00 0.00 0.00 50 1010.7
20260506201542 45 324 1.0 4.0 0.00 0.00 0.00 48 1010.7
20260506200039 45 316 0.0 3.0 0.00 0.00 0.00 47 1010.6
20260506194539 46 354 1.0 6.0 0.00 0.00 0.00 45 1010.5
20260506193040 46 356 1.0 7.0 0.00 0.00 0.00 44 1010.4
20260506191541 47 325 1.0 5.0 0.00 0.00 0.00 43 1010.4
20260506190037 48 335 2.0 6.0 0.00 0.00 0.00 41 1010.3
20260506184547 49 348 2.0 7.0 0.00 0.00 0.00 39 1010.1
20260506183050 50 316 3.0 6.0 0.00 0.00 0.00 37 1010.0
20260506181600 52 306 4.0 9.0 0.00 0.00 0.00 36 1009.9
20260506180036 52 304 2.0 12.0 0.00 0.00 0.00 34 1009.6